Regional Weather Roundup
Issued by NWS

Home | Current Version | Previous Version | Graphics & Text | Print | Product List | Glossary On
Versions: 1 2 3 4 5 6 7 8 9 10 11 12 13 14 15 16 17 18 19 20 21 22 23 24 25 26 27 28 29 30 31 32 33 34 35 36 37 38 39 40 41 42 43 44 45 46 47 48 49 50
000
ASUS43 KMKX 261600
RWRWI

WISCONSIN REGIONAL WEATHER ROUNDUP
NATIONAL WEATHER SERVICE MILWAUKEE/SULLIVAN WI
1100 AM CDT WED JUL 26 2017

NOTE: "FAIR" INDICATES FEW OR NO CLOUDS BELOW 12,000 FEET WITH NO
SIGNIFICANT WEATHER AND/OR OBSTRUCTIONS TO VISIBILITY.

WIZ001-002-006>008-014>016-023>028-261700-
NORTHWEST WISCONSIN

CITY           SKY/WX    TMP DP  RH WIND       PRES   REMARKS
SUPERIOR ARPT  NOT AVBL
ASHLAND        CLOUDY    77  65  66 W8        29.98S
HAYWARD        CLOUDY    74  64  71 NW3       30.02R
SIREN          CLOUDY    72  67  83 NW6       30.03S
CUMBERLAND     CLOUDY    70  68  94 CALM      30.01S
RICE LAKE      CLOUDY    71  69  93 W3        30.03R
CHETEK           N/A     71  70  97 CALM      30.01R
LADYSMITH      MOSUNNY   71  68  91 W7        30.03R
EAU CLAIRE     NOT AVBL
MENOMONIE      LGT RAIN  71  71  99 SW7       30.02R
NEW RICHMOND   CLOUDY    72  71  98 NW6       30.02R FOG
OSCEOLA        CLOUDY    73  73 100 SW3       30.04S
$$

WIZ003>005-009-010-017-018-261700-
NORTH CENTRAL WISCONSIN

CITY           SKY/WX    TMP DP  RH WIND       PRES   REMARKS
MANITOWISH WTR CLOUDY    71  71  98 NW7       29.99S
ARBOR VITAE    CLOUDY    72  70  95 SW6       29.99S
WOODRUFF       CLOUDY    72  70  95 SW6       29.99S
RHINELANDER    LGT RAIN  69  69 100 W8        30.00S
EAGLE RIVER    CLOUDY    70  70  98 W7        29.99F
LAND O LAKES   CLOUDY    72  68  86 W3        30.00S
PHILLIPS       LGT RAIN  69  69 100 SW5       30.01R
TOMAHAWK       LGT RAIN  68  67  94 CALM      30.01F
MEDFORD        DRIZZLE   69  67  94 SW3       30.01R
MERRILL        NOT AVBL
$$

WIZ029-030-035-036-043>047-261700-
CENTRAL WISCONSIN

CITY           SKY/WX    TMP DP  RH WIND       PRES   REMARKS
WAUSAU         LGT RAIN  69  68  96 SW9       30.00R
MOSINEE        CLOUDY    70  70 100 SW6       30.03R
MARSHFIELD     PTSUNNY   71  68  90 W5        30.01R
STEVENS POINT  CLOUDY    69  69 100 SW7       30.01S
WAUPACA        CLOUDY    72  71  96 S7        30.01F
WAUTOMA        CLOUDY    74  69  85 S6        30.02F
WISC RAPIDS    CLOUDY    73  70  90 SW6       30.02S
CAMP DOUGLAS   NOT AVBL
$$

WIZ011>013-019>022-031-037>040-048>050-261700-
NORTHEAST WISCONSIN

CITY           SKY/WX    TMP DP  RH WIND       PRES   REMARKS
ANTIGO         LGT RAIN  69  68  97 W5        30.01R
SHAWANO        CLOUDY    70  67  92 SW5       29.99R
OCONTO         CLOUDY    67  66  96 CALM      29.98F
STURGEON BAY   TSTM      70  66  88 W9        30.03S
GREEN BAY      CLOUDY    68  68 100 S9        30.01R
MANITOWOC      NOT AVBL
APPLETON       PTSUNNY   70  70 100 S7        30.01S
CLINTONVILLE   CLOUDY   N/A N/A N/A S8        30.00R
OSHKOSH        PTSUNNY   72  67  84 S6        30.03S
$$

WIZ032>034-041-042-053>061-261700-
SOUTHWEST WISCONSIN

CITY           SKY/WX    TMP DP  RH WIND       PRES   REMARKS
LA CROSSE      CLOUDY    79  71  76 S10       30.00S HX  82
SPARTA         CLOUDY    75  69  81 S8        30.01F
VIROQUA        CLOUDY    76  71  83 CALM      30.05S
BOSCOBEL       CLOUDY    79  70  74 CALM      30.03F HX  82
PRAIRIE DU CHI CLOUDY    76  69  78 CALM      30.03S
PLATTEVILLE    CLOUDY    76  74  94 SW8       30.05S
$$

WIZ056-057-062-063-064-067-068-261700-
SOUTH CENTRAL WISCONSIN

CITY           SKY/WX    TMP DP  RH WIND       PRES   REMARKS
REEDSBURG      CLOUDY    74  72  94 SW5       30.04S
BARABOO/DELLS  CLOUDY    74  67  78 SW6       30.04F
LONE ROCK      CLOUDY    75  72  88 S6        30.04F
MINERAL POINT  PTSUNNY   77  73  88 W6        30.06R
MADISON        CLOUDY    76  69  79 CALM      30.05R
MIDDLETON      PTSUNNY   77  70  79 W10       30.06R
WATERTOWN      CLOUDY    74  70  87 W6        30.05R
MONROE         CLOUDY    77  68  73 SW13      30.05S
JANESVILLE     PTSUNNY   81  70  69 SW12      30.04F HX  84
$$

WIZ051-052-058>065-066-070>072-261700-
SOUTHEAST WISCONSIN

CITY           SKY/WX    TMP DP  RH WIND       PRES   REMARKS
MILWAUKEE      PTSUNNY   79  68  69 SW14      30.04F HX  81
WAUKESHA       SUNNY     75  66  73 SW10      30.06S
MILWAUKEE/TIMM SUNNY     79  64  61 W9G17     30.05S HX  81
RACINE         MOSUNNY   81  70  69 S10       30.06F HX  84
KENOSHA        PTSUNNY   80  68  66 SW8       30.06F HX  83
FOND DU LAC    CLOUDY    73  65  75 SW8       30.04F
SHEBOYGAN      CLOUDY    72  70  93 W5        30.04F
WEST BEND      CLOUDY    73  68  83 SW10G16   30.05R
JUNEAU         CLOUDY    72  66  83 SW9       30.07S
$$

LSZ147-162-261700-
LAKE SUPERIOR

STATION/POSITION TIME  TEMP    WIND        PRES    WAVE
                       AIR SEA DIR/SP/G            HT/PER
                 (UTC) (F)     (DEG/KT/KT) (MB)    (FT/S)
W MID LAKE BUOY  1450   55 51  250/  6/  8 1014.1R   1
DEVILS ISLAND    1500   65     220/  7/  9 1014.5S
SAXON HARBOR     1440   70     340/  7/  9 1014.6R
$$

LMZ867-665-643>646-261700-
LAKE MICHIGAN

STATION/POSITION TIME  TEMP    WIND        PRES    WAVE
                       AIR SEA DIR/SP/G            HT/PER
                 (UTC) (F)     (DEG/KT/KT) (MB)    (FT/S)
CHAMBERS ISLAND  1540   68     190/  5/ 10 1015.2S
S GREEN BAY BUOY 1530   69 71  230/ 10/ 12 1016.0R
N MID LAKE BUOY  1450   67 65  210/ 16/ 17 1015.5S   5/ 6
NORTHPORT PIER   1540   68     250/  6/ 12 1015.6R
KEWAUNEE LAKESHO 1524   70     280/ 13/ 20 1016.3
SHEBOYGAN LAKESH 1500   71     210/  8/  9 1016.2S
PORT WASHINGTON  1530   75     180/  6/  9 1017.6S
ATWATER BUOY     1409   72 68  200/  8/ 12 1017.5F
MILWAUKEE LAKESH 1530   76     230/ 13/ 15   N/A
S MID LAKE BUOY  1450   71 70  200/ 12/ 14 1018.3F   3/ 5
KENOSHA   LAKESH 1500   77     200/  9/ 12 1017.6
$$

TC  - TEMPERATURE IN CELSIUS
VSB - VISIBILITY IN STATUTE MILES
WCI - WIND CHILL INDEX
HX  - HEAT INDEX




USA.gov is the U.S. government's official web portal to all federal, state and local government web resources and services.